Location: Enborne
(51.3833°N, 1.3667°W)
Time: 04:47:13
(UTC+00:00)

CZ-4C R/B - Pass Details

Date: 18 September 2020
Orbit: 627 x 1375 km, 63.4° (Epoch: 20 October)

Event Time Altitude Azimuth Distance (km) Brightness Sun altitude
Exits shadow 23:01:59 18° 50° (NE) 2,100 4.4 -35.8°
Drops below altitude 10° 23:03:30 10° 48° (NE) 2,669 5.0 -35.9°
Sets 23:06:21 0° 46° (NE) 3,744 5.9 -36.0°
